DELTA 1 DEB, 42085

Orbit data source: Space-Track

DELTA 1 DEB, 42085 is space debris in SSO originally from a launch on Sun, 15 Dec 1968 UTC launched from the Air Force Western Test Range (AFWTR). Debris objects in space refer to the collection of defunct objects orbiting the Earth. Examples of debris include non-operational satellites, rocket bodies, and fragments generated from explosions, collisions, or faulty payload assembly.

Loading next visibility...
Identifier
42085, 1968-114M
Orbit
SSO
Country
Flag of USUS
Related business
Manufacturer
Aerojet
Mission
Spacecraft
Bus & Motor
Unknown
Mass
Unknown
Launch date (UTC)
1968-12-15 (57 years ago)
Launch vehicle
Unknown
Launch site
Air Force Western Test Range (AFWTR)
Object type
Payload
Rocket body
Debris
Shape & HBR
Unknown shape, 0.1 m
Radar Cross Section
Small (<0.1 m²)

Expand to show TLE details & history
Last TLE update: 6 days ago

TLE from 6 days ago
0 DELTA 1 DEB
1 42085U 68114M   25296.41126068  .00000309  00000-0  14181-2 0  9990
2 42085 100.9256 358.7798 0115287 145.4611 230.2181 12.84332658558756
Epoch: 2025-10-23T09:52Z
TLE epoch observation values (Epoch: 2025-10-23T09:52:12.922Z)
Latitude
14.37626°
Longitude
175.83311°
Altitude
1,383.464 km
Speed
7.142 km/s
True Right ascension
23h 43m 49s
True Declination
14° 18' 02"
Sunlit
Object was in full shadow at epoch
Visualization orbit readout
Latitude
Unknown
Longitude
Unknown
Altitude
Unknown
Speed
Unknown
Apparent Right ascension
Unknown
Apparent Declination
Unknown
Sunlit
N/A
Visualization observer readout
Local Sidereal Time
07:26:21
Azimuth
Unknown
Elevation
Unknown
Doppler factor
Unknown
Orbital elements
Apogee altitude
1,410.32 km
Perigee altitude
1,232.786 km
Semi-major axis
7,699.69 km
Eccentricity
0.01153
Inclination
100.9256°
RAAN
358.7798°
Arg. of periapsis
145.4611°
True anomaly
229.21219°
Mean anomaly
230.2181°
Eccentric anomaly
229.71422°
Mean motion
3.21243 °/min
Orbital period
112.06 mins
BSTAR
0.0014181
Loading maneuver chart data...
Computing Atmospheric mass density...
Loading historical data...
Loading historical data...
Loading historical data...
Loading historical data...
Loading historical data...
Loading historical data...
Loading historical data...

Documentation

Showing up to 5 results
|